Regional Weather Roundup
Issued by NWS

Home | Current Version | Previous Version | Text Only | Print | Product List | Glossary On
Versions: 1 2 3 4 5 6 7 8 9 10 11 12 13 14 15 16 17 18 19 20 21 22 23 24 25 26 27 28 29 30 31 32 33 34 35 36 37 38 39 40 41 42 43 44 45 46 47 48 49 50
000
ASCA42 TJSJ 030010
RWRPR
PUERTO RICO/U.S. VIRGIN ISLANDS HOURLY WEATHER ROUNDUP
NATIONAL WEATHER SERVICE SAN JUAN PR
800 PM AST SUN AUG 02 2015

PRZ001-004-030100-
PUERTO RICO

CITY           SKY/WX    TMP DP  RH WIND       PRES   REMARKS
SAN JUAN LMM   PTCLDY    82  75  78 E10       29.97R
AGUADILLA      PTCLDY    77  75  94 CALM      29.97R
$$

PRZ006-007-030100-
U.S. VIRGIN ISLANDS

CITY           SKY/WX    TMP DP  RH WIND       PRES   REMARKS
CHARLOTTE AMA  PTCLDY    84  75  74 E12       29.97R HX  92
CHRISTIANSTED  PTCLDY    82  75  78 E10       29.98R
$$

HOURLY WEATHER ROUNDUP FOR THE NEWS MEDIA

CITY           SKY/WX    TMP DP  RH WIND       PRES   REMARKS
ORLANDO        CLOUDY    77  73  87 S9        29.93S
NEW YORK       PTCLDY    80  66  62 S16       29.88S
NEWARK         PTCLDY    86  50  28 SW12      29.86S
CHICAGO        PTSUNNY   87  70  56 SW20G36   29.66R HX  92
HARTFORD       CLEAR     73  64  73 SW7       29.89R
BOSTON         PTCLDY    82  55  39 SW15      29.86R
DALLAS         MOSUNNY   96  54  24 SE8       29.85F HX  94
PHILADELPHIA   MOCLDY    85  55  35 SW8       29.90R
LOS ANGELES    MOSUNNY   74  65  73 W13       29.85F
WASHINGTON DC  PTCLDY    78  61  55 S7        29.92R



USA.gov is the U.S. government's official web portal to all federal, state and local government web resources and services.